• In Uzbekistan
  • List of Countries
  • For 7 days
  • Water Temperature
  • Satellite Maps
  • Weather Map
  • Weather Widgets
  • user-avatar
    Login

    Hourly Weather Canberra

    Today, 8 December, Thursday

    Time Temperature Precipitation Wind Pressure Humidity
    00:00 +12°C° 0 mm 1 mps 705 mmHg 85%
    01:00 +12°C° 0 mm 1 mps 705 mmHg 87%
    02:00 +12°C° 0 mm 1 mps 705 mmHg 89%
    03:00 +11°C° 0 mm 1 mps 704 mmHg 90%
    04:00 +10°C° 0 mm 1 mps 703 mmHg 95%
    05:00 +13°C° 0 mm 1 mps 703 mmHg 87%
    06:00 +16°C° 0 mm 1 mps 703 mmHg 78%
    07:00 +18°C° 0 mm 2 mps 703 mmHg 69%
    08:00 +21°C° 0 mm 3 mps 703 mmHg 57%
    09:00 +25°C° 0 mm 4 mps 702 mmHg 45%
    10:00 +28°C° 0 mm 6 mps 702 mmHg 33%
    11:00 +29°C° 0 mm 6 mps 701 mmHg 31%
    12:00 +30°C° 0 mm 6 mps 700 mmHg 29%
    13:00 +32°C° 0 mm 7 mps 699 mmHg 27%
    14:00 +32°C° 0 mm 6 mps 699 mmHg 30%
    15:00 +30°C° 0 mm 6 mps 698 mmHg 32%
    16:00 +29°C° 0 mm 6 mps 698 mmHg 35%
    17:00 +26°C° 0.1 mm 5 mps 698 mmHg 47%
    18:00 +23°C° 0.1 mm 5 mps 698 mmHg 59%
    19:00 +20°C° 0.1 mm 5 mps 698 mmHg 71%
    20:00 +18°C° 0 mm 4 mps 698 mmHg 71%
    21:00 +17°C° 0 mm 4 mps 699 mmHg 71%
    22:00 +16°C° 0 mm 3 mps 699 mmHg 72%
    23:00 +14°C° 0 mm 3 mps 700 mmHg 69%

    Tomorrow, 9 December, Friday

    Time Temperature Precipitation Wind Pressure Humidity
    00:00 +13°C° 0 mm 4 mps 700 mmHg 66%
    01:00 +13°C° 0 mm 4 mps 700 mmHg 63%
    02:00 +12°C° 0 mm 4 mps 701 mmHg 65%
    03:00 +11°C° 0 mm 3 mps 701 mmHg 67%
    04:00 +10°C° 0 mm 3 mps 701 mmHg 70%
    05:00 +10°C° 0 mm 4 mps 702 mmHg 66%
    06:00 +11°C° 0 mm 4 mps 703 mmHg 62%
    07:00 +11°C° 0 mm 4 mps 704 mmHg 59%
    08:00 +12°C° 0 mm 5 mps 705 mmHg 51%
    09:00 +14°C° 0 mm 5 mps 705 mmHg 44%
    10:00 +15°C° 0 mm 5 mps 706 mmHg 36%
    11:00 +17°C° 0 mm 5 mps 706 mmHg 34%
    12:00 +19°C° 0 mm 4 mps 706 mmHg 31%
    13:00 +20°C° 0 mm 4 mps 707 mmHg 29%
    14:00 +20°C° 0 mm 4 mps 707 mmHg 28%
    15:00 +20°C° 0 mm 4 mps 707 mmHg 28%
    16:00 +21°C° 0 mm 3 mps 707 mmHg 28%
    17:00 +18°C° 0 mm 3 mps 708 mmHg 35%
    18:00 +16°C° 0 mm 2 mps 708 mmHg 43%
    19:00 +14°C° 0 mm 1 mps 708 mmHg 50%
    20:00 +13°C° 0 mm 1 mps 709 mmHg 56%
    21:00 +11°C° 0 mm 1 mps 710 mmHg 62%
    22:00 +9°C° 0 mm 1 mps 710 mmHg 68%
    23:00 +9°C° 0 mm 1 mps 710 mmHg 71%

    Day after tomorrow, 10 December, Saturday

    Time Temperature Precipitation Wind Pressure Humidity
    00:00 +8°C° 0 mm 1 mps 710 mmHg 75%
    01:00 +8°C° 0 mm 1 mps 711 mmHg 79%
    02:00 +7°C° 0 mm 1 mps 711 mmHg 81%
    03:00 +7°C° 0 mm 1 mps 711 mmHg 84%
    04:00 +6°C° 0 mm 1 mps 711 mmHg 86%
    05:00 +9°C° 0 mm 1 mps 712 mmHg 77%
    06:00 +11°C° 0 mm 1 mps 712 mmHg 69%
    07:00 +13°C° 0 mm 1 mps 713 mmHg 60%
    08:00 +16°C° 0 mm 1 mps 713 mmHg 51%
    09:00 +19°C° 0 mm 1 mps 713 mmHg 43%
    10:00 +21°C° 0 mm 2 mps 713 mmHg 34%
    11:00 +23°C° 0 mm 2 mps 713 mmHg 31%
    12:00 +25°C° 0 mm 2 mps 713 mmHg 27%
    13:00 +26°C° 0 mm 2 mps 713 mmHg 24%
    14:00 +26°C° 0 mm 2 mps 712 mmHg 24%
    15:00 +26°C° 0 mm 3 mps 712 mmHg 24%
    16:00 +26°C° 0 mm 3 mps 711 mmHg 24%
    17:00 +23°C° 0 mm 2 mps 711 mmHg 35%
    18:00 +19°C° 0 mm 2 mps 711 mmHg 46%
    19:00 +16°C° 0 mm 2 mps 711 mmHg 57%
    20:00 +15°C° 0 mm 2 mps 712 mmHg 66%
    21:00 +14°C° 0 mm 2 mps 712 mmHg 76%
    22:00 +13°C° 0 mm 2 mps 713 mmHg 86%
    23:00 +13°C° 0 mm 2 mps 712 mmHg 88%

    11 December, Sunday

    Time Temperature Precipitation Wind Pressure Humidity
    00:00 +13°C° 0 mm 1 mps 712 mmHg 90%
    01:00 +13°C° 0 mm 1 mps 712 mmHg 92%
    02:00 +12°C° 0 mm 1 mps 712 mmHg 94%
    03:00 +11°C° 0 mm 1 mps 712 mmHg 96%
    04:00 +11°C° 0 mm 1 mps 711 mmHg 97%
    05:00 +12°C° 0 mm 1 mps 712 mmHg 89%
    06:00 +14°C° 0 mm 1 mps 713 mmHg 81%
    07:00 +16°C° 0 mm 1 mps 713 mmHg 73%
    08:00 +20°C° 0 mm 1 mps 713 mmHg 59%
    09:00 +23°C° 0 mm 1 mps 714 mmHg 45%
    10:00 +27°C° 0 mm 1 mps 714 mmHg 32%
    11:00 +27°C° 0 mm 1 mps 714 mmHg 29%
    12:00 +28°C° 0 mm 1 mps 713 mmHg 27%
    13:00 +29°C° 0 mm 2 mps 713 mmHg 24%
    14:00 +28°C° 0 mm 2 mps 713 mmHg 27%
    15:00 +28°C° 0 mm 2 mps 712 mmHg 29%
    16:00 +28°C° 0 mm 2 mps 712 mmHg 31%
    17:00 +25°C° 0.1 mm 3 mps 712 mmHg 46%
    18:00 +21°C° 0.1 mm 3 mps 712 mmHg 61%
    19:00 +18°C° 0.1 mm 3 mps 712 mmHg 76%
    20:00 +17°C° 0 mm 3 mps 712 mmHg 81%
    21:00 +17°C° 0 mm 2 mps 713 mmHg 86%
    22:00 +16°C° 0 mm 2 mps 713 mmHg 91%
    23:00 +16°C° 0 mm 2 mps 713 mmHg 92%

    12 December, Monday

    Time Temperature Precipitation Wind Pressure Humidity
    00:00 +16°C° 0 mm 2 mps 713 mmHg 94%
    01:00 +15°C° 0 mm 1 mps 712 mmHg 95%
    02:00 +15°C° 0 mm 1 mps 712 mmHg 95%
    03:00 +14°C° 0 mm 1 mps 712 mmHg 96%
    04:00 +14°C° 0 mm 1 mps 712 mmHg 96%
    05:00 +15°C° 0 mm 1 mps 712 mmHg 91%
    06:00 +16°C° 0 mm 1 mps 713 mmHg 87%
    07:00 +19°C° 0 mm 1 mps 713 mmHg 83%
    08:00 +21°C° 0 mm 1 mps 713 mmHg 70%
    09:00 +24°C° 0 mm 1 mps 713 mmHg 57%
    10:00 +27°C° 0 mm 1 mps 713 mmHg 44%
    11:00 +28°C° 0 mm 2 mps 713 mmHg 37%
    12:00 +30°C° 0 mm 2 mps 712 mmHg 30%
    13:00 +31°C° 0 mm 2 mps 712 mmHg 23%
    14:00 +31°C° 0 mm 2 mps 711 mmHg 22%
    15:00 +32°C° 0 mm 2 mps 711 mmHg 22%
    16:00 +32°C° 0 mm 2 mps 710 mmHg 21%
    17:00 +28°C° 0 mm 2 mps 710 mmHg 31%
    18:00 +25°C° 0 mm 1 mps 710 mmHg 41%
    19:00 +22°C° 0 mm 1 mps 709 mmHg 50%
    20:00 +21°C° 0 mm 1 mps 709 mmHg 55%
    21:00 +20°C° 0 mm 1 mps 710 mmHg 60%
    22:00 +19°C° 0 mm 1 mps 710 mmHg 64%
    23:00 +19°C° 0 mm 1 mps 709 mmHg 64%

    13 December, Tuesday

    Time Temperature Precipitation Wind Pressure Humidity
    00:00 +18°C° 0 mm 2 mps 709 mmHg 65%
    01:00 +18°C° 0 mm 2 mps 709 mmHg 65%
    02:00 +18°C° 0 mm 2 mps 709 mmHg 65%
    03:00 +18°C° 0 mm 2 mps 708 mmHg 65%
    04:00 +18°C° 0 mm 2 mps 708 mmHg 65%
    05:00 +20°C° 0 mm 3 mps 709 mmHg 60%
    06:00 +22°C° 0 mm 4 mps 709 mmHg 54%
    07:00 +25°C° 0 mm 5 mps 709 mmHg 48%
    08:00 +27°C° 0 mm 5 mps 709 mmHg 43%
    09:00 +29°C° 0 mm 6 mps 709 mmHg 37%
    10:00 +32°C° 0 mm 6 mps 709 mmHg 31%
    11:00 +32°C° 0 mm 6 mps 708 mmHg 29%
    12:00 +33°C° 0 mm 6 mps 707 mmHg 27%
    13:00 +34°C° 0 mm 6 mps 706 mmHg 25%
    14:00 +33°C° 0 mm 6 mps 706 mmHg 26%
    15:00 +33°C° 0 mm 5 mps 705 mmHg 27%
    16:00 +32°C° 0 mm 5 mps 705 mmHg 28%
    17:00 +30°C° 0 mm 4 mps 704 mmHg 32%
    18:00 +28°C° 0 mm 4 mps 704 mmHg 36%
    19:00 +27°C° 0 mm 3 mps 704 mmHg 41%
    20:00 +24°C° 0.4 mm 3 mps 704 mmHg 53%
    21:00 +21°C° 0.4 mm 2 mps 704 mmHg 65%
    22:00 +20°C° 0.4 mm 1 mps 703 mmHg 78%
    23:00 +19°C° 0.2 mm 2 mps 703 mmHg 78%
    Show more